Погода в Ларе

Иран     27°41′34″N   54°20′52″E
темп.,
°C
ветер,
м/с
пор.,
м/с
влажн.,
%
обл.,
%
осадки,
мм/ч
давл.,
гПа
погр.,
м
22 января, сб
сб2200:30+7с11500 0.0 102010
03:30+6св21450 0.0 102010
06:30+5ссв11420 0.0 102110
09:30+8св11270 0.0 1022266
12:30+11з11200 0.0 1019715
15:30+13з23180 0.0 1016920
18:30+10зсз22310 0.0 101823
21:30+8з22340 0.0 101916
23 января, вс
вс2300:30+7зсз22390 0.0 101811
03:30+6сз11430 0.0 101810
06:30+5ссз11450 0.0 101810
09:30+9ссз01290 0.0 1019188
12:30+13з23210 0.0 1017668
15:30+14зсз23200 0.0 1015716
18:30+11з22350 0.0 101711
21:30+9з22360 0.0 101810
24 января, пн
пн2400:30+8зсз11380 0.0 101710
03:30+7сз11380 0.0 101710
06:30+7сз11370 0.0 101810
09:30+12сз11240 0.0 1019151
12:30+15зсз34190 0.0 1016570
15:30+16зсз45210 0.0 1015697
18:30+13з23340 0.0 101714
21:30+11з22360 0.0 101812
25 января, вт
вт2500:30+10зсз22380 0.0 101711
03:30+10сз22390 0.0 101710
06:30+9сз22400 0.0 101810
09:30+14з12330 0.0 1019144
12:30+17сз22330 0.0 1016644
15:30+18зсз22310 0.0 10151032
18:30+15зсз33450 0.0 101717
21:30+13зюз11510 0.0 101810
26 января, ср
ср2600:30+12ю01530 0.0 101710
03:30+11вюв11550 0.0 101710
06:30+10вюв11560 0.0 101810
09:30+14вюв11420 0.0 1019200
12:30+17ю11310 0.0 1017909
15:30+18юз11260 0.0 10161098
18:30+15ююз11420 0.0 101711
21:30+14зюз11450 0.0 101710